GW4081 Weather Reports


Display with metric or nautical units.
time (UTC)temp
F
wind
direction
speed
MPH
gust
MPH
rain 1hr
in
rain 24hr
in
rain mn
in
humidity
%
barometer
mb
20260502204605 75 346 1.0 8.0 0.00 0.00 0.00 42 1019.0
20260502204104 75 30 2.0 9.0 0.00 0.00 0.00 43 1019.2
20260502203604 75 2 3.0 9.0 0.00 0.00 0.00 43 1019.2
20260502203104 74 38 3.0 9.0 0.00 0.00 0.00 44 1019.3
20260502201105 74 37 2.0 12.0 0.00 0.00 0.00 43 1019.5
20260502200605 73 11 4.0 12.0 0.00 0.00 0.00 43 1019.5
20260502200104 73 241 2.0 8.0 0.00 0.00 0.00 44 1019.4
20260502195604 73 298 4.0 8.0 0.00 0.00 0.00 42 1019.5
20260502195104 73 11 2.0 9.0 0.00 0.00 0.00 44 1019.5
20260502194605 73 52 2.0 9.0 0.00 0.00 0.00 45 1019.6
20260502194105 73 15 4.0 9.0 0.00 0.00 0.00 44 1019.6
20260502193604 72 340 3.0 9.0 0.00 0.00 0.00 43 1019.7
20260502193104 73 346 5.0 9.0 0.00 0.00 0.00 43 1019.7
20260502192604 74 12 5.0 9.0 0.00 0.00 0.00 42 1019.8
20260502192105 75 93 1.0 6.0 0.00 0.00 0.00 42 1019.9
20260502191604 75 118 1.0 12.0 0.00 0.00 0.00 45 1019.9
20260502191105 74 59 3.0 12.0 0.00 0.00 0.00 45 1020.0
20260502190605 73 48 4.0 12.0 0.00 0.00 0.00 44 1020.0
20260502185104 74 11 3.0 10.0 0.00 0.00 0.00 46 1020.1
20260502184604 74 92 2.0 9.0 0.00 0.00 0.00 44 1020.2
20260502184105 73 42 3.0 9.0 0.00 0.00 0.00 45 1020.2
20260502183605 73 343 3.0 12.0 0.00 0.00 0.00 44 1020.2
20260502183104 73 111 3.0 12.0 0.00 0.00 0.00 45 1020.3
20260502182105 73 35 3.0 12.0 0.00 0.00 0.00 46 1020.5
20260502180605 72 29 2.0 8.0 0.00 0.00 0.00 45 1020.6
20260502180104 72 48 5.0 10.0 0.00 0.00 0.00 47 1020.7
20260502170104 70 20 4.0 9.0 0.00 0.00 0.00 44 1021.2
20260502163605 69 47 2.0 9.0 0.00 0.00 0.00 48 1021.2
20260502163104 69 17 3.0 9.0 0.00 0.00 0.00 46 1021.1
20260502162604 69 34 3.0 9.0 0.00 0.00 0.00 48 1021.1
20260502161604 68 326 3.0 6.0 0.00 0.00 0.00 49 1021.0
20260502161106 67 359 1.0 6.0 0.00 0.00 0.00 50 1020.9
20260502160604 68 6 2.0 6.0 0.00 0.00 0.00 49 1020.9
20260502160104 68 1 2.0 6.0 0.00 0.00 0.00 49 1020.9
20260502151604 63 258 2.0 5.0 0.00 0.00 0.00 59 1021.0
20260502151104 63 185 1.0 5.0 0.00 0.00 0.00 57 1021.2
20260502150605 63 203 2.0 5.0 0.00 0.00 0.00 59 1021.2
20260502150104 62 241 2.0 7.0 0.00 0.00 0.00 60 1021.1
20260502140105 58 185 7.0 12.0 0.00 0.00 0.00 65 1020.7
20260502130604 56 174 5.0 9.0 0.00 0.00 0.00 64 1020.9
20260502130104 55 174 6.0 9.0 0.00 0.00 0.00 65 1020.8
20260502123604 53 148 3.0 6.0 0.00 0.00 0.00 68 1020.6
20260502123105 53 163 3.0 6.0 0.00 0.00 0.00 68 1020.6
20260502122604 53 139 5.0 6.0 0.00 0.00 0.00 69 1020.5
20260502121604 52 136 3.0 6.0 0.00 0.00 0.00 70 1020.2
20260502121105 52 148 3.0 7.0 0.00 0.00 0.00 70 1020.1
20260502120104 51 149 3.0 6.0 0.00 0.00 0.00 72 1019.9
20260502115604 51 150 4.0 6.0 0.00 0.00 0.00 72 1019.9
20260502115104 51 156 3.0 6.0 0.00 0.00 0.00 73 1019.9
20260502114604 51 123 3.0 6.0 0.00 0.00 0.00 73 1019.9
20260502114104 51 130 2.0 6.0 0.00 0.00 0.00 73 1019.9
20260502113604 51 119 3.0 6.0 0.00 0.00 0.00 72 1019.9
20260502113104 51 127 3.0 6.0 0.00 0.00 0.00 73 1019.9
20260502112604 51 127 3.0 5.0 0.00 0.00 0.00 74 1019.9
20260502112104 51 121 3.0 5.0 0.00 0.00 0.00 74 1019.9
20260502111104 51 158 2.0 5.0 0.00 0.00 0.00 73 1020.0
20260502110104 51 129 3.0 5.0 0.00 0.00 0.00 72 1019.9
20260502105605 51 122 3.0 6.0 0.00 0.00 0.00 73 1020.0
20260502105104 51 130 3.0 6.0 0.00 0.00 0.00 73 1020.0
20260502104604 51 132 5.0 5.0 0.00 0.00 0.00 73 1020.1
20260502104104 51 66 2.0 3.0 0.00 0.00 0.00 73 1020.2
20260502103104 51 66 1.0 3.0 0.00 0.00 0.00 74 1020.4
20260502102104 51 78 1.0 5.0 0.00 0.00 0.00 75 1020.6
20260502101604 51 84 2.0 9.0 0.00 0.00 0.00 75 1020.6
20260502101104 50 44 3.0 9.0 0.00 0.00 0.00 75 1020.8
20260502100105 51 23 3.0 13.0 0.00 0.00 0.00 75 1020.4
20260502091104 51 210 5.0 9.0 0.00 0.00 0.00 72 1019.0
20260502090604 51 210 6.0 9.0 0.00 0.00 0.00 71 1019.0
20260502090104 51 209 6.0 8.0 0.00 0.00 0.00 71 1018.9
20260502080104 52 198 5.0 7.0 0.00 0.00 0.00 68 1018.7
20260502071104 54 189 6.0 8.0 0.00 0.00 0.00 65 1018.9
20260502070604 55 193 6.0 8.0 0.00 0.00 0.00 64 1018.9
20260502070104 55 189 6.0 8.0 0.00 0.00 0.00 65 1018.9
20260502065604 54 187 6.0 7.0 0.00 0.00 0.00 65 1018.9
20260502065104 54 189 5.0 7.0 0.00 0.00 0.00 66 1018.9
20260502064603 54 189 5.0 7.0 0.00 0.00 0.00 66 1019.0
20260502064104 54 189 5.0 6.0 0.00 0.00 0.00 67 1019.0
20260502063603 55 190 5.0 6.0 0.00 0.00 0.00 66 1019.1
20260502063104 55 190 5.0 6.0 0.00 0.00 0.00 66 1019.1
20260502062104 55 173 3.0 5.0 0.00 0.00 0.00 63 1019.1
20260502061604 55 166 2.0 5.0 0.00 0.00 0.00 62 1019.2
20260502061103 56 157 3.0 5.0 0.00 0.00 0.00 62 1019.2
20260502060604 55 153 3.0 5.0 0.00 0.00 0.00 62 1019.2
20260502060104 55 161 3.0 5.0 0.00 0.00 0.00 62 1019.2
20260502055104 56 159 3.0 5.0 0.00 0.00 0.00 61 1019.1
20260502054604 56 153 2.0 3.0 0.00 0.00 0.00 61 1019.1
20260502053604 55 153 3.0 5.0 0.00 0.00 0.00 62 1019.1
20260502053104 55 166 3.0 3.0 0.00 0.00 0.00 63 1019.1
20260502052604 55 166 2.0 3.0 0.00 0.00 0.00 65 1019.1
20260502052104 54 166 3.0 3.0 0.00 0.00 0.00 65 1019.1
20260502051603 54 165 1.0 3.0 0.00 0.00 0.00 65 1019.1
20260502051103 54 165 2.0 3.0 0.00 0.00 0.00 65 1019.1
20260502050604 54 166 2.0 3.0 0.00 0.00 0.00 66 1019.1
20260502045103 54 118 0.0 0.0 0.00 0.00 0.00 67 1019.1
20260502044604 54 118 0.0 0.0 0.00 0.00 0.00 67 1019.0
20260502044104 54 118 0.0 0.0 0.00 0.00 0.00 66 1019.0
20260502043604 54 118 0.0 0.0 0.00 0.00 0.00 66 1018.9
20260502043104 54 118 0.0 0.0 0.00 0.00 0.00 66 1019.0
20260502042604 54 118 0.0 0.0 0.00 0.00 0.00 66 1019.0
20260502042104 54 118 0.0 0.0 0.00 0.00 0.00 66 1019.1
20260502041604 54 118 0.0 0.0 0.00 0.00 0.00 66 1019.0
20260502041103 54 118 0.0 0.0 0.00 0.00 0.00 66 1019.0
20260502040604 54 118 0.0 0.0 0.00 0.00 0.00 66 1019.1
20260502035103 55 118 0.0 0.0 0.00 0.00 0.00 64 1018.9
20260502034603 55 118 0.0 0.0 0.00 0.00 0.00 62 1018.8
20260502033604 56 118 0.0 0.0 0.00 0.00 0.00 61 1018.7
20260502033104 57 118 0.0 0.0 0.00 0.00 0.00 60 1018.7
20260502032604 57 118 0.0 0.0 0.00 0.00 0.00 60 1018.7
20260502032104 57 118 0.0 0.0 0.00 0.00 0.00 59 1018.7
20260502031603 58 118 0.0 0.0 0.00 0.00 0.00 58 1018.7
20260502030104 59 118 0.0 2.0 0.00 0.00 0.00 56 1018.6
20260502025603 59 118 0.0 3.0 0.00 0.00 0.00 55 1018.5
20260502025104 60 118 2.0 3.0 0.00 0.00 0.00 53 1018.5
20260502024104 59 118 2.0 3.0 0.00 0.00 0.00 53 1018.4
20260502023603 59 118 1.0 3.0 0.00 0.00 0.00 54 1018.4
20260502023104 59 96 1.0 3.0 0.00 0.00 0.00 54 1018.4
20260502022604 59 96 0.0 0.0 0.00 0.00 0.00 53 1018.3
20260502022104 60 96 0.0 0.0 0.00 0.00 0.00 54 1018.3
20260502021603 60 96 0.0 0.0 0.00 0.00 0.00 53 1018.2
20260502020604 61 96 0.0 0.0 0.00 0.00 0.00 51 1018.0
20260502020104 62 96 0.0 0.0 0.00 0.00 0.00 50 1018.0
20260502015604 62 96 0.0 2.0 0.00 0.00 0.00 48 1018.0
20260502015104 63 96 0.0 2.0 0.00 0.00 0.00 47 1017.9
20260502014604 63 96 1.0 2.0 0.00 0.00 0.00 44 1017.9
20260502013604 64 96 1.0 3.0 0.00 0.00 0.00 43 1017.7
20260502013104 64 86 2.0 3.0 0.00 0.00 0.00 43 1017.7
20260502012604 64 86 0.0 3.0 0.00 0.00 0.00 42 1017.6
20260502012104 65 78 0.0 3.0 0.00 0.00 0.00 42 1017.6
20260502011604 65 65 1.0 3.0 0.00 0.00 0.00 42 1017.5
20260502011104 65 56 2.0 3.0 0.00 0.00 0.00 41 1017.4
20260502010603 65 65 2.0 5.0 0.00 0.00 0.00 41 1017.3
20260502010104 66 46 3.0 5.0 0.00 0.00 0.00 40 1017.2
20260502005104 66 41 2.0 5.0 0.00 0.00 0.00 39 1017.2
20260502004604 66 80 1.0 5.0 0.00 0.00 0.00 39 1017.2
20260502004103 66 60 2.0 5.0 0.00 0.00 0.00 39 1017.2
20260502003604 67 35 2.0 3.0 0.00 0.00 0.00 39 1017.1
20260502003104 67 74 1.0 5.0 0.00 0.00 0.00 38 1017.1
20260502002604 67 53 2.0 5.0 0.00 0.00 0.00 38 1017.0
20260502002104 67 53 2.0 5.0 0.00 0.00 0.00 38 1017.0
20260502001603 67 68 2.0 8.0 0.00 0.00 0.00 38 1017.0
20260502001104 67 60 4.0 8.0 0.00 0.00 0.00 37 1017.0
20260502000604 68 52 4.0 8.0 0.00 0.00 0.00 36 1017.0
20260502000105 68 57 3.0 7.0 0.00 0.00 0.00 37 1017.0
20260501235603 68 5 3.0 10.0 0.00 0.00 0.00 36 1016.9
20260501235104 68 73 5.0 10.0 0.00 0.00 0.00 36 1016.9
20260501234104 68 66 4.0 12.0 0.00 0.00 0.00 36 1017.0
20260501233603 68 63 4.0 12.0 0.00 0.00 0.00 36 1017.0
20260501233104 69 16 3.0 10.0 0.00 0.00 0.00 36 1017.0
20260501232604 69 42 5.0 10.0 0.00 0.00 0.00 35 1016.9
20260501232103 69 62 4.0 10.0 0.00 0.00 0.00 36 1016.8
20260501231104 69 56 5.0 9.0 0.00 0.00 0.00 37 1016.6
20260501230603 69 2 4.0 13.0 0.00 0.00 0.00 37 1016.6
20260501230104 68 61 4.0 13.0 0.00 0.00 0.00 37 1016.6
20260501225604 69 52 5.0 12.0 0.00 0.00 0.00 37 1016.6
20260501225103 69 16 3.0 10.0 0.00 0.00 0.00 36 1016.5
20260501224604 69 53 6.0 15.0 0.00 0.00 0.00 36 1016.4
20260501223603 70 57 4.0 12.0 0.00 0.00 0.00 37 1016.4
20260501223103 70 46 4.0 12.0 0.00 0.00 0.00 34 1016.5
20260501222604 70 71 6.0 12.0 0.00 0.00 0.00 35 1016.4
20260501221604 70 68 3.0 12.0 0.00 0.00 0.00 36 1016.5
20260501221103 70 10 3.0 12.0 0.00 0.00 0.00 36 1016.4
20260501220604 71 9 6.0 12.0 0.00 0.00 0.00 35 1016.4
20260501220104 71 1 7.0 12.0 0.00 0.00 0.00 34 1016.3
20260501215604 71 24 4.0 12.0 0.00 0.00 0.00 35 1016.3
20260501214104 71 55 3.0 10.0 0.00 0.00 0.00 38 1016.4
20260501213103 71 8 5.0 13.0 0.00 0.00 0.00 36 1016.4
20260501212104 71 38 3.0 15.0 0.00 0.00 0.00 38 1016.5
20260501211604 71 50 4.0 12.0 0.00 0.00 0.00 38 1016.6
20260501211104 71 37 5.0 12.0 0.00 0.00 0.00 37 1016.7
20260501210104 70 18 6.0 17.0 0.00 0.00 0.00 37 1016.8
20260501205604 71 25 5.0 17.0 0.00 0.00 0.00 37 1016.8
20260501205104 71 67 8.0 17.0 0.00 0.00 0.00 40 1016.9